Location: Unspecified
(34.6867°N, 0.0000°E)
Time: 18:51:49
(UTC+00:00)

CZ-6A DEB - Visible Passes

Search period start: 04 April 2026 00:00
Search period end: 14 April 2026 00:00
Orbit: 823 x 968 km, 98.9° (Epoch: 27 March)

Date Brightness Start Highest point End Pass type
(mag) Time Alt. Az. Time Alt. Az. Time Alt. Az.
4 Apr ? 02:55:12 10° ENE 02:57:33 12° E 02:59:53 10° ESE visible
4 Apr ? 04:33:50 10° N 04:39:42 73° WNW 04:45:19 10° SSW visible
5 Apr ? 02:56:19 10° ENE 02:58:48 13° E 03:01:15 10° ESE visible
5 Apr ? 04:35:06 10° N 04:40:56 71° WNW 04:46:31 10° SSW visible
6 Apr ? 02:57:25 10° ENE 03:00:03 13° E 03:02:37 10° ESE visible
6 Apr ? 04:36:20 10° N 04:42:09 69° WNW 04:47:43 10° SSW visible
7 Apr ? 02:58:33 10° ENE 03:01:17 14° E 03:03:59 10° ESE visible
7 Apr ? 04:37:35 10° N 04:43:22 67° WNW 04:48:54 10° SSW visible
8 Apr ? 02:59:40 10° ENE 03:02:31 14° E 03:05:20 10° ESE visible
8 Apr ? 04:38:50 10° N 04:44:35 65° WNW 04:50:05 10° SSW visible
9 Apr ? 03:00:47 10° ENE 03:03:45 14° E 03:06:39 10° ESE visible
9 Apr ? 04:40:05 10° N 04:45:48 63° WNW 04:51:17 10° SSW visible
10 Apr ? 03:01:55 10° ENE 03:04:59 15° E 03:07:59 10° SE visible
10 Apr ? 04:41:19 10° N 04:47:01 62° WNW 04:52:27 10° SSW visible
11 Apr ? 03:03:03 10° ENE 03:06:12 15° E 03:09:18 10° SE visible
11 Apr ? 04:42:34 10° N 04:48:13 60° WNW 04:53:38 10° SSW visible
12 Apr ? 03:04:11 10° ENE 03:07:26 15° E 03:10:37 10° SE visible
12 Apr ? 04:43:48 10° N 04:49:25 58° WNW 04:54:48 10° SSW visible
13 Apr ? 03:05:19 10° NE 03:08:39 16° E 03:11:55 10° SE visible
13 Apr ? 04:45:03 10° N 04:50:37 57° WNW 04:55:59 10° SSW visible
